Location: Clanezzo
(45.7500°N, 9.6000°E)
Time: 21:37:29
(UTC+00:00)

SPROUT - Pass Details

Date: 03 July 2022
Orbit: 588 x 598 km, 97.9° (Epoch: 16 August)

Event Time Altitude Azimuth Distance (km) Brightness Sun altitude
Exits shadow 23:10:12 18° 99° (E) 1,463 ? -21.3°
Maximum altitude 23:11:54 23° 65° (ENE) 1,261 ? -21.3°
Drops below altitude 10° 23:15:13 10° 13° (NNE) 1,928 ? -21.3°
Sets 23:17:42 0° 359° (N) 2,836 ? -21.3°
